Regional Weather Roundup
Issued by NWS Grand Forks, ND

Home | Current Version | Previous Version | Text Only | Print | Product List | Glossary Off
Versions: 1 2 3 4 5 6 7 8 9 10 11 12 13 14 15 16 17 18 19 20 21 22 23 24 25 26 27 28 29 30 31 32 33 34 35 36 37 38 39 40 41 42 43 44 45 46 47 48 49 50

000
ASUS43 KFGF 292010
RWRFGF
PRAIRIE TO PINES  WEATHER ROUNDUP
NATIONAL WEATHER SERVICE EASTERN NORTH DAKOTA/GRAND FORKS ND
300 PM CDT FRI AUG 29 2014

 **SATELLITE DATA USED TO AUGMENT SKY COVER AT AUTOMATED STATIONS**
 *****  WEATHER ACROSS EASTERN NORTH DAKOTA  *****

CITY           SKY/WX    TMP DP  RH WIND       PRES   REMARKS
GRAND FORKS    MOSUNNY   73  65  75 CALM      29.75F
GRAND FRKS AFB CLOUDY    71  69  95 NE3       29.77S
GRAND FRKS NWS   N/A     73 N/A N/A N5          N/A
DEVILS LAKE    CLOUDY    63  52  67 N23G32    29.83S
FARGO          CLOUDY    74  65  73 VRB5      29.76S
WAHPETON ARPT  CLOUDY    70  63  78 W9        29.78S
$$

 ***** WEATHER ACROSS CENTRAL AND WESTERN NORTH DAKOTA  *****

CITY           SKY/WX    TMP DP  RH WIND       PRES   REMARKS
BISMARCK       CLOUDY    69  60  73 N15G23    29.91R
MINOT          PTSUNNY   69  53  56 N14G22    29.94R
JAMESTOWN      CLOUDY    72  63  73 NW21      29.80S
MINOT AFB      PTSUNNY   68  55  62 N12G18    29.94R
GARRISON         N/A     68  56  65 N12G21    29.93R
WILLISTON      CLOUDY    73  50  44 N12       29.98S
DICKINSON      CLOUDY    67  55  65 N13       29.98R
HETTINGER      PTSUNNY   71  56  58 N15       29.98R
$$

 *****  OTHER AIRPORT OBSERVATIONS IN OUR AREA  *****

CITY           SKY/WX    TMP DP  RH WIND       PRES   REMARKS
WALHALLA         N/A     61  61 100 N18G25    29.85S
GRAFTON AIRPOR CLOUDY    64  64 100 N20G26    29.77S
VALLEY CITY AR MOCLDY    75  66  73 NW13      29.79R
CANDO          CLOUDY    64  57  77 N16G24    29.89R
CAVALIER APRT  CLOUDY    61  57  88 N15G23    29.83R
GWINNER        CLOUDY    73  68  83 NW6       29.79F
SHEYENNE NWR     N/A     71  66  83 W7        29.95S
ROLLA          CLOUDY    61  57  88 N16       29.93S
 ***** THE ABOVE OBSERVATIONS ARE NON NWS ARE NOT QUALITY
       CONTROLLED AND MAY MIS-REPORT RAIN FOR SNOW...
$$

  *****  WEATHER ACROSS NORTHERN MINNESOTA  *****

CITY           SKY/WX    TMP DP  RH WIND       PRES   REMARKS
FLAG ISLAND    LGT RAIN  66  64  94 CALM      29.75F
WARROAD        DRIZZLE   68  64  88 W9        29.77S
ROSEAU         CLOUDY    66  63  88 NW7       29.77S HAZE
HALLOCK        DRIZZLE   64  63  94 N15G21    29.78R
THF RVR FALLS  CLOUDY    70  64  83 W10       29.77S
BAUDETTE       CLOUDY    67  63  87 S3        29.76S
WASKISH        CLOUDY    66  64  94 CALM      29.77S
CROOKSTON      PTSUNNY   70  64  83 CALM      29.77F
$$
  *****  WEATHER ACROSS CENTRAL AND WEST MINNESOTA  *****

CITY           SKY/WX    TMP DP  RH WIND       PRES   REMARKS
FOSSTON        CLOUDY    70  63  78 CALM      29.77F
BEMIDJI        CLOUDY    69  64  85 SW6       29.77S
PARK RAPIDS    CLOUDY    70  64  81 CALM      29.77F
ELBOW LAKE     CLOUDY    70  66  85 NW5       29.77F
WADENA         CLOUDY    68  64  88 CALM      29.78S
DETROIT LAKES  CLOUDY    70  64  83 SW6       29.79S
MOORHEAD       PTSUNNY   72  70  94 CALM      29.77S
FERGUS FALLS   CLOUDY    70  66  88 W8        29.77F
MORRIS MN      MOSUNNY   73  66  78 NW7       29.76F
STAPLES        CLOUDY    70  64  83 W3        29.78S
$$
  *****  WEATHER ELSEWHERE ACROSS MINNESOTA  *****

CITY           SKY/WX    TMP DP  RH WIND       PRES   REMARKS
DULUTH         RAIN      63  61  93 S3        29.78S FOG
INTRNTL FALLS  CLOUDY    68  61  78 SE6       29.76F
ELY            CLOUDY    63  57  82 SE5       29.79R
CLOQUET        RAIN      64  63  94 CALM      29.77F
WHEATON        PTSUNNY   73  66  78 N6        29.78F
BRAINERD       CLOUDY    68  64  87 CALM      29.77S
HIBBING        CLOUDY    65  61  87 S3        29.78F
ALEXANDRIA     CLOUDY    71  66  84 NW3       29.79F
SAINT CLOUD    CLOUDY    73  67  81 S3        29.75F
MINNEAPOLIS    CLOUDY    79  68  69 S7        29.74F
$$

  *****  WEATHER ACROSS SOUTH DAKOTA  *****

CITY           SKY/WX    TMP DP  RH WIND       PRES   REMARKS
SIOUX FALLS    CLOUDY    75  67  76 NW18G24   29.79R THUNDER
BROOKINGS      NOT AVBL
WATERTOWN      PTSUNNY   75  66  73 NW5       29.78F
HURON          MOSUNNY   80  68  66 NW13      29.78S
SISSETON         N/A     79  69  71 NE6       29.75F
ABERDEEN       PTSUNNY   77  67  71 NW12      29.79S
MITCHELL       PTSUNNY   78  68  71 NW7       29.78F
PIERRE         MOSUNNY   81  59  47 N22       29.84F
MOBRIDGE       MOSUNNY   77  61  57 N21G29    29.84S
RAPID CITY     MOSUNNY   77  51  40 N13G20    30.00F
$$

  *****  SOME WEATHER IN NEARBY STATES *****

CITY           SKY/WX    TMP DP  RH WIND       PRES   REMARKS
GLASGOW MT     CLOUDY    68  50  52 W5        30.00F
GREAT FALLS MT SUNNY     75  42  30 S8G16     29.94F
CHEYENNE WY    SUNNY     74  44  34 VRB7G20   30.15S
SCOTTSBLUFF NE MOSUNNY   81  52  36 VRB7      30.03S
OMAHA NE       PTSUNNY   78  67  68 S10       29.78F
DES MOINES IA  CLOUDY    82  69  64 S8        29.78F
DAVENPORT IA   SUNNY     85  71  63 S10       29.85F HX  90
CHICAGO IL     CLOUDY    85  70  60 SE13      29.90F
EAU CLAIRE WI  MOSUNNY   82  71  69 S10       29.76F
LA CROSSE WI   MOSUNNY   85  71  63 S12       29.77F HX  90
$$

  *****  SOME NATIONAL WEATHER *****

CITY           SKY/WX    TMP DP  RH WIND       PRES   REMARKS
LA GUARDIA NY  MOSUNNY   77  50  38 NE8       30.16F
RALEIGH NC     CLOUDY    81  70  69 E8        30.12F
ATLANTA GA     MOSUNNY   90  57  32 SE5       30.05F
NEW ORLEANS LA LGT RAIN  78  74  87 SE7       29.96F
OKLAHOMA CITY  PTSUNNY   81  67  62 S12G17    29.92F
ALBUQUERQUE NM MOSUNNY   81  43  26 SW6       30.15F
SALT LAKE CITY MOSUNNY   87  39  18 S15       30.04F
LOS ANGELES CA MOSUNNY   77  63  61 W14       29.87F
BOISE ID       SUNNY     87  41  19 CALM      29.92F
SEATTLE WA     CLOUDY    64  50  60 W8        30.01R
$$

*** WEATHER ACROSS MANITOBA...SASKATCHEWAN AND ONTARIO ***
                ***ONTARIO***

CITY           SKY/WX    TMP DP  RH WIND       PRES   REMARKS
GERALDTON      LGT RAIN  59  57  94 S7        29.87F FOG
THUNDER BAY    LGT RAIN  59  59 100 E10       29.81F FOG
SIOUX LOOKOUT  CLOUDY    66  63  88 SW8       29.76F
TORONTO        PTSUNNY   72  50  46 SE6       30.14F
BIG TROUT LK   SUNNY     64  55  72 SW5       29.75S
PICKLE LAKE    PTSUNNY   68  61  77 SW8       29.74F
DRYDEN         CLOUDY    66  63  88 S13G20    29.76F
KENORA         TSTM      64  63  94 CALM      29.78S
$$
                *** MANITOBA***

CITY           SKY/WX    TMP DP  RH WIND       PRES   REMARKS
BRANDON        PTSUNNY   66  52  59 N9        29.94R
DAUPHIN        MOSUNNY   66  48  52 VRB7      29.94S
ISLAND LAKE    PTSUNNY   61  50  67 W6        29.85R
PILOT MOUND      N/A     61  55  82 N15G22      N/A
THE PAS        MOSUNNY   63  41  45 NW7       29.95S
THOMPSON       PTSUNNY   57  41  54 NW13G18   29.90R
WINNIPEG       LGT RAIN  63  61  94 N10G20    29.86R
LYNN LAKE      CLOUDY    55  37  50 MISG      29.92F
CHURCHILL      PTSUNNY   55  41  58 W17G24    29.74S
GILLAM         PTSUNNY   55  43  62 NW15      29.83R
$$
                ***SASKATCHEWAN***

CITY           SKY/WX    TMP DP  RH WIND       PRES   REMARKS
ESTEVAN        NOT AVBL
KINDERSLEY     PTSUNNY   70  45  40 S10G23    29.94F
LLOYDMINSTER   PTSUNNY   66  43  42 S15G23    29.90F
PRINCE ALBERT  MOSUNNY   64  43  45 SW7       29.98F
REGINA         SUNNY     66  45  45 N9        29.99F
YORKTON        SUNNY     64  46  52 N10       29.98F
N. BATTLEFORD  MOSUNNY   68  48  49 S5        29.96F
LA RONGE       MOSUNNY   61  41  48 VRB3      29.96F
SASKATOON      MOSUNNY   66  45  45 S3        29.99F
SWIFT CURRENT  PTSUNNY   68  46  45 S10G18    29.97F
$$
NOTE: THESE ARE AUTOMATED STATIONS WITH LIMITED QUALITY CONTROL
      "FAIR" INDICATES FEW OR NO CLOUDS BELOW 12,000 FEET WITH NO
      SIGNIFICANT WEATHER AND/OR OBSTRUCTIONS TO VISIBILITY.
      SKY/WX - SKY CONDITION AND SIGNIFICANT WEATHER.
      TMP - AIR TEMPERATURE.    DP   - DEWPOINT TEMPERATURE.
      RH  - RELATIVE HUMIDITY.  PRES - PRESSURE.
      HX  - HEAT INDEX.         WCI  - WIND CHILL INDEX.
$



USA.gov is the U.S. government's official web portal to all federal, state and local government web resources and services.